Location: Suzhou
(31.3110°N, 120.6180°E)
Time: 02:45:03
(UTC+08:00)

Hubble Space Telescope - Visible Passes

Search period start: 29 February 2024 00:00
Search period end: 10 March 2024 00:00
Orbit: 516 x 519 km, 28.5° (Epoch: 27 February)

Date Brightness Start Highest point End Pass type
(mag) Time Alt. Az. Time Alt. Az. Time Alt. Az.
29 Feb 1.0 18:42:04 10° WSW 18:46:00 57° S 18:48:49 18° ESE visible
29 Feb 3.5 20:22:44 10° W 20:23:43 16° WSW 20:23:43 16° WSW visible
01 Mar 1.1 18:24:37 10° W 18:28:35 57° S 18:32:27 10° ESE visible
01 Mar 2.7 20:05:21 10° W 20:07:22 25° WSW 20:07:22 25° WSW visible
02 Mar 2.0 19:47:57 10° W 19:51:02 32° SW 19:51:02 32° SW visible
03 Mar 1.9 19:30:34 10° W 19:34:08 31° SSW 19:34:43 29° S visible
04 Mar 2.2 19:13:11 10° WSW 19:16:38 28° SSW 19:18:26 20° SSE visible
05 Mar 2.5 18:55:49 10° WSW 18:59:07 25° SSW 19:02:13 11° SE visible
06 Mar 2.7 18:38:28 10° WSW 18:41:35 22° SSW 18:44:43 10° SSE visible
07 Mar 3.0 18:21:09 10° WSW 18:24:03 19° SSW 18:26:56 10° SSE visible
